When you browse on this site, cookies collect data to enhance your experience and personalize the content and advertising you see.
Visit our Privacy Policy to learn more. By continuing to use the site, you agree to this use of cookies and data.
  • In Deutschland
  • Länderverzeichnis
  • Für 7 Tage
  • Wassertemperatur
  • Wetterkarte
  • Widgets
  • user-avatar
    Anmelden

    Stündliche Wetter Tibissa

    Heute, 31 Mai, Sonntag

    Zeit Temperatur Niederschläge Wind Luftdruck Luftfeuchtigkeit
    00:00 +17°C° 0 mm 2 m/S 684 mmHg 62%
    01:00 +17°C° 0 mm 2 m/S 684 mmHg 65%
    02:00 +16°C° 0 mm 1 m/S 684 mmHg 67%
    03:00 +16°C° 0 mm 1 m/S 684 mmHg 69%
    04:00 +16°C° 0 mm 1 m/S 684 mmHg 70%
    05:00 +15°C° 0 mm 0 m/S 684 mmHg 67%
    06:00 +15°C° 0 mm 0 m/S 684 mmHg 64%
    07:00 +16°C° 0 mm 0 m/S 684 mmHg 59%
    08:00 +17°C° 0 mm 0 m/S 685 mmHg 54%
    09:00 +21°C° 0 mm 1 m/S 685 mmHg 49%
    10:00 +22°C° 0 mm 1 m/S 686 mmHg 44%
    11:00 +24°C° 0 mm 2 m/S 686 mmHg 40%
    12:00 +25°C° 0 mm 3 m/S 686 mmHg 35%
    13:00 +27°C° 0 mm 4 m/S 686 mmHg 30%
    14:00 +27°C° 0 mm 5 m/S 686 mmHg 29%
    15:00 +28°C° 0 mm 5 m/S 686 mmHg 28%
    16:00 +28°C° 0 mm 5 m/S 685 mmHg 26%
    17:00 +28°C° 0 mm 5 m/S 685 mmHg 28%
    18:00 +27°C° 0 mm 4 m/S 685 mmHg 29%
    19:00 +26°C° 0 mm 4 m/S 685 mmHg 31%
    20:00 +25°C° 0 mm 3 m/S 685 mmHg 35%
    21:00 +24°C° 0 mm 2 m/S 686 mmHg 40%
    22:00 +23°C° 0 mm 2 m/S 686 mmHg 45%
    23:00 +21°C° 0 mm 2 m/S 685 mmHg 51%

    Morgen, 1 Juni, Montag

    Zeit Temperatur Niederschläge Wind Luftdruck Luftfeuchtigkeit
    00:00 +20°C° 0 mm 2 m/S 685 mmHg 58%
    01:00 +19°C° 0 mm 2 m/S 684 mmHg 65%
    02:00 +19°C° 0 mm 2 m/S 684 mmHg 68%
    03:00 +18°C° 0 mm 2 m/S 684 mmHg 72%
    04:00 +18°C° 0 mm 2 m/S 684 mmHg 76%
    05:00 +18°C° 0.2 mm 2 m/S 684 mmHg 73%
    06:00 +19°C° 0.2 mm 2 m/S 684 mmHg 71%
    07:00 +19°C° 0.2 mm 2 m/S 684 mmHg 68%
    08:00 +21°C° 0.3 mm 2 m/S 685 mmHg 62%
    09:00 +24°C° 0.3 mm 2 m/S 685 mmHg 56%
    10:00 +25°C° 0.3 mm 2 m/S 686 mmHg 49%
    11:00 +27°C° 0 mm 2 m/S 686 mmHg 45%
    12:00 +28°C° 0 mm 3 m/S 685 mmHg 42%
    13:00 +29°C° 0 mm 3 m/S 685 mmHg 38%
    14:00 +29°C° 0.4 mm 4 m/S 685 mmHg 40%
    15:00 +28°C° 0.4 mm 4 m/S 685 mmHg 42%
    16:00 +28°C° 0.4 mm 5 m/S 684 mmHg 45%
    17:00 +26°C° 3.5 mm 4 m/S 684 mmHg 52%
    18:00 +24°C° 3.5 mm 3 m/S 684 mmHg 60%
    19:00 +21°C° 3.5 mm 2 m/S 684 mmHg 68%
    20:00 +21°C° 1.1 mm 2 m/S 684 mmHg 69%
    21:00 +21°C° 1.1 mm 2 m/S 685 mmHg 70%
    22:00 +20°C° 1.1 mm 2 m/S 686 mmHg 71%
    23:00 +20°C° 0 mm 2 m/S 685 mmHg 73%

    übermorgen, 2 Juni, Dienstag

    Zeit Temperatur Niederschläge Wind Luftdruck Luftfeuchtigkeit
    00:00 +21°C° 0 mm 1 m/S 685 mmHg 75%
    01:00 +21°C° 0 mm 1 m/S 685 mmHg 77%
    02:00 +20°C° 0 mm 1 m/S 685 mmHg 78%
    03:00 +20°C° 0 mm 1 m/S 685 mmHg 80%
    04:00 +20°C° 0 mm 1 m/S 685 mmHg 81%
    05:00 +20°C° 0 mm 1 m/S 685 mmHg 79%
    06:00 +20°C° 0 mm 1 m/S 685 mmHg 78%
    07:00 +20°C° 0 mm 1 m/S 685 mmHg 76%
    08:00 +22°C° 0 mm 1 m/S 685 mmHg 68%
    09:00 +23°C° 0 mm 2 m/S 686 mmHg 60%
    10:00 +24°C° 0 mm 2 m/S 686 mmHg 52%
    11:00 +26°C° 0 mm 3 m/S 686 mmHg 46%
    12:00 +27°C° 0 mm 3 m/S 686 mmHg 40%
    13:00 +28°C° 0 mm 4 m/S 686 mmHg 35%
    14:00 +28°C° 0 mm 4 m/S 685 mmHg 35%
    15:00 +29°C° 0 mm 4 m/S 685 mmHg 34%
    16:00 +29°C° 0 mm 4 m/S 685 mmHg 34%
    17:00 +28°C° 0 mm 4 m/S 685 mmHg 35%
    18:00 +28°C° 0 mm 3 m/S 684 mmHg 37%
    19:00 +27°C° 0 mm 3 m/S 684 mmHg 38%
    20:00 +26°C° 0.1 mm 3 m/S 684 mmHg 43%
    21:00 +25°C° 0.1 mm 2 m/S 685 mmHg 48%
    22:00 +24°C° 0.1 mm 1 m/S 685 mmHg 54%
    23:00 +23°C° 0 mm 2 m/S 684 mmHg 57%

    3 Juni, Mittwoch

    Zeit Temperatur Niederschläge Wind Luftdruck Luftfeuchtigkeit
    00:00 +23°C° 0 mm 2 m/S 684 mmHg 61%
    01:00 +21°C° 0 mm 2 m/S 683 mmHg 64%
    02:00 +21°C° 0 mm 2 m/S 683 mmHg 65%
    03:00 +20°C° 0 mm 2 m/S 683 mmHg 67%
    04:00 +20°C° 0 mm 2 m/S 682 mmHg 68%
    05:00 +21°C° 0 mm 2 m/S 682 mmHg 64%
    06:00 +21°C° 0 mm 3 m/S 683 mmHg 60%
    07:00 +22°C° 0 mm 3 m/S 683 mmHg 57%
    08:00 +24°C° 0 mm 3 m/S 683 mmHg 51%
    09:00 +26°C° 0 mm 3 m/S 684 mmHg 46%
    10:00 +27°C° 0 mm 3 m/S 684 mmHg 40%
    11:00 +29°C° 0 mm 4 m/S 684 mmHg 36%
    12:00 +30°C° 0 mm 4 m/S 684 mmHg 32%
    13:00 +32°C° 0 mm 4 m/S 684 mmHg 27%
    14:00 +32°C° 0 mm 4 m/S 684 mmHg 27%
    15:00 +32°C° 0 mm 4 m/S 683 mmHg 27%
    16:00 +32°C° 0 mm 4 m/S 683 mmHg 27%
    17:00 +30°C° 0 mm 3 m/S 683 mmHg 29%
    18:00 +30°C° 0 mm 3 m/S 683 mmHg 31%
    19:00 +29°C° 0 mm 2 m/S 683 mmHg 32%
    20:00 +28°C° 0.1 mm 2 m/S 683 mmHg 37%
    21:00 +27°C° 0.1 mm 1 m/S 683 mmHg 41%
    22:00 +25°C° 0.1 mm 1 m/S 683 mmHg 46%
    23:00 +25°C° 0 mm 1 m/S 683 mmHg 48%

    4 Juni, Donnerstag

    Zeit Temperatur Niederschläge Wind Luftdruck Luftfeuchtigkeit
    00:00 +24°C° 0 mm 1 m/S 683 mmHg 49%
    01:00 +24°C° 0 mm 1 m/S 682 mmHg 51%
    02:00 +24°C° 0 mm 1 m/S 682 mmHg 51%
    03:00 +23°C° 0 mm 1 m/S 682 mmHg 52%
    04:00 +23°C° 0 mm 1 m/S 682 mmHg 52%
    05:00 +24°C° 0 mm 2 m/S 682 mmHg 50%
    06:00 +25°C° 0 mm 2 m/S 683 mmHg 47%
    07:00 +26°C° 0 mm 2 m/S 683 mmHg 45%
    08:00 +27°C° 0 mm 3 m/S 683 mmHg 39%
    09:00 +29°C° 0 mm 3 m/S 684 mmHg 34%
    10:00 +32°C° 0 mm 4 m/S 684 mmHg 29%
    11:00 +32°C° 0 mm 5 m/S 684 mmHg 27%
    12:00 +33°C° 0 mm 5 m/S 684 mmHg 26%
    13:00 +34°C° 0 mm 6 m/S 684 mmHg 24%
    14:00 +35°C° 0 mm 6 m/S 683 mmHg 23%
    15:00 +35°C° 0 mm 6 m/S 683 mmHg 22%
    16:00 +35°C° 0 mm 6 m/S 683 mmHg 21%
    17:00 +35°C° 0 mm 6 m/S 683 mmHg 23%
    18:00 +34°C° 0 mm 6 m/S 683 mmHg 25%
    19:00 +33°C° 0 mm 6 m/S 682 mmHg 27%
    20:00 +32°C° 0 mm 6 m/S 682 mmHg 31%
    21:00 +29°C° 0 mm 6 m/S 682 mmHg 35%
    22:00 +27°C° 0 mm 6 m/S 682 mmHg 40%
    23:00 +27°C° 0 mm 6 m/S 682 mmHg 40%

    5 Juni, Freitag

    Zeit Temperatur Niederschläge Wind Luftdruck Luftfeuchtigkeit
    00:00 +26°C° 0 mm 5 m/S 682 mmHg 40%
    01:00 +26°C° 0 mm 5 m/S 682 mmHg 40%
    02:00 +26°C° 0 mm 5 m/S 681 mmHg 41%
    03:00 +25°C° 0 mm 4 m/S 681 mmHg 42%
    04:00 +25°C° 0 mm 4 m/S 681 mmHg 42%
    05:00 +26°C° 0 mm 4 m/S 681 mmHg 41%
    06:00 +26°C° 0 mm 3 m/S 682 mmHg 40%
    07:00 +27°C° 0 mm 3 m/S 682 mmHg 39%
    08:00 +29°C° 0 mm 4 m/S 683 mmHg 31%
    09:00 +33°C° 0 mm 5 m/S 683 mmHg 22%
    10:00 +35°C° 0 mm 7 m/S 684 mmHg 14%
    11:00 +37°C° 0 mm 8 m/S 684 mmHg 14%
    12:00 +37°C° 0 mm 9 m/S 684 mmHg 13%
    13:00 +38°C° 0 mm 11 m/S 684 mmHg 13%
    14:00 +38°C° 0 mm 10 m/S 683 mmHg 12%
    15:00 +38°C° 0 mm 10 m/S 683 mmHg 12%
    16:00 +38°C° 0 mm 10 m/S 683 mmHg 12%
    17:00 +37°C° 0 mm 8 m/S 683 mmHg 14%
    18:00 +36°C° 0 mm 6 m/S 683 mmHg 16%
    19:00 +35°C° 0 mm 5 m/S 683 mmHg 18%
    20:00 +34°C° 0 mm 4 m/S 683 mmHg 18%
    21:00 +32°C° 0 mm 4 m/S 683 mmHg 19%
    22:00 +30°C° 0 mm 4 m/S 684 mmHg 20%
    23:00 +29°C° 0 mm 4 m/S 684 mmHg 21%
    Mehr zeigen